Simultaneous Nadir Overpasses (SNOs) Predictions

Prediction of SNOs between AQUA and METOP-B Satellite Orbit:

Table of predicted SNOs for the next 14.0 days since TLE Epoch: 10/23/2021
Index Date (AQUA) Time (AQUA) Lat,Lon (AQUA) SZA (AQUA ) Date (METOP-B) Time (METOP-B) Lat,Lon (METOP-B) SZA (METOP-B ) Distance(km) Time Diff (sec)
1 10/24/2021 15:49:21 -73.71, 117.12 94.40 10/24/2021 15:48:14 -73.73, 117.11 94.37 2.10 67
2 10/24/2021 16:38:50 73.78, -75.40 85.70 10/24/2021 16:38:52 73.80, -75.39 85.71 1.39 2
3 10/24/2021 17:28:19 -73.96, 91.85 94.12 10/24/2021 17:29:31 -73.96, 92.32 94.13 14.49 72
4 10/27/2021 11:23:40 -73.74,-176.52 93.40 10/27/2021 11:22:37 -73.72,-176.49 93.42 2.42 63
5 10/27/2021 12:13:08 73.77, -8.94 86.64 10/27/2021 12:13:15 73.79, -9.00 86.66 3.08 7
6 10/27/2021 13:02:40 -74.10, 157.96 93.02 10/27/2021 13:03:51 -74.10, 159.07 93.03 33.76 71
7 10/30/2021 06:57:57 -73.73,-110.07 92.48 10/30/2021 06:56:59 -73.71,-110.11 92.50 2.52 58
8 10/30/2021 07:47:26 73.81, 57.39 87.62 10/30/2021 07:47:36 73.83, 57.50 87.63 3.64 10
9 10/30/2021 08:37:01 -74.29,-136.06 91.88 10/30/2021 08:38:09 -74.28,-134.05 91.91 60.61 68
10 11/02/2021 02:32:15 -73.73, -43.64 91.58 11/02/2021 02:31:21 -73.75, -43.62 91.56 2.14 54
11 11/02/2021 03:21:44 73.81, 123.82 88.52 11/02/2021 03:21:59 73.81, 123.87 88.52 1.55 15
12 11/02/2021 04:11:22 -74.45, -70.00 90.82 11/02/2021 04:12:28 -74.47, -67.17 90.82 84.28 66
13 11/04/2021 22:06:33 -73.74, 22.77 90.69 11/04/2021 22:05:44 -73.74, 22.75 90.70 0.87 49
14 11/04/2021 22:56:02 73.82,-169.77 89.40 11/04/2021 22:56:22 73.80,-169.76 89.38 2.74 20



Historial Predications of SNOs between AQUA and METOP-B
